Location: Peebles
(55.6412°N, 3.1714°W)
Time: 19:38:16
(UTC+01:00)

Vanguard 3 - All Passes

Search period start: 02 October 2022 00:00
Search period end: 12 October 2022 00:00
Orbit: 508 x 3257 km, 33.3° (Epoch: 02 October)

Date Brightness Start Highest point End Pass type
(mag) Time Alt. Az. Time Alt. Az. Time Alt. Az.
02 Oct - 11:44:04 10° S 11:46:03 11° SSE 11:48:18 10° SSE daylight
02 Oct - 13:53:16 10° SSW 13:56:40 13° S 14:00:42 10° SSE daylight
03 Oct - 12:39:57 10° SSW 12:42:17 12° S 12:44:59 10° SSE daylight
